STARLINK-36401, 67696

Orbit data source: Space-Track

STARLINK-36401, 67696 is a payload satellite owned by SpaceX/Seattle (US) in SSO that was launched on Sat, 07 Feb 2026 UTC via an FALCON 9 launch vehicle from the Air Force Western Test Range (AFWTR). Payload-class satellites include a variety of spacecraft equipped with specific instruments for various scientific and technological missions. These include communications satellites like Starlink; space stations such as the ISS; scientific satellites like the Hubble; Earth observation satellites from companies like Planet Labs, Umbra, and HawkEye 360; GPS; miniature CubeSats for education and research; and military/defense satellites.

Loading next visibility...
Identifier
67696, 2026-025D
Orbit
SSO
Country
Flag of USUS
Related business
Manufacturer
SpaceX/Seattle
Mission
Operational spacecraft
Bus & Motor
STARLINK V2MO, Unknown motor
Mass
575 kg wet, ~530 kg dry
Launch date (UTC)
2026-02-07 (2 months ago)
Launch vehicle
FALCON 9
Launch site
Air Force Western Test Range (AFWTR)
Object type
Payload
Rocket body
Debris
Shape & HBR
Unknown shape, 17.7 m
Radar Cross Section
RCS unknown

Expand to show TLE details & history
Last TLE update: 15 hours ago

TLE from 15 hours ago
0 STARLINK-36401
1 67696U 26025D   26103.72704303  .00016097  00000-0  49973-3 0  9995
2 67696  97.2862 215.9437 0001984  94.2538 265.8932 15.33453834 11381
Epoch: 2026-04-13T17:26Z
TLE epoch observation values (Epoch: 2026-04-13T17:26:56.517Z)
Latitude
0.00001°
Longitude
112.29471°
Altitude
468.726 km
Speed
7.632 km/s
True Right ascension
14h 23m 46s
True Declination
0° 00' 00"
Sunlit
Object was in full shadow at epoch
Visualization orbit readout
Latitude
Unknown
Longitude
Unknown
Altitude
Unknown
Speed
Unknown
Apparent Right ascension
Unknown
Apparent Declination
Unknown
Sunlit
N/A
Visualization observer readout
Local Sidereal Time
15:08:16
Azimuth
Unknown
Elevation
Unknown
Doppler factor
Unknown
Orbital elements
Apogee altitude
463.817 km
Perigee altitude
461.103 km
Semi-major axis
6,840.597 km
Eccentricity
0.0002
Inclination
97.2862°
RAAN
215.9437°
Arg. of periapsis
94.2538°
True anomaly
265.87052°
Mean anomaly
265.8932°
Eccentric anomaly
265.88186°
Mean motion
3.83621 °/min
Orbital period
93.84 mins
BSTAR
0.00049973
Loading maneuver chart data...
Computing Atmospheric mass density...
Loading historical data...
Loading historical data...
Loading historical data...
Loading historical data...
Loading historical data...
Loading historical data...
Loading historical data...

Documentation

Showing up to 5 results
|